(151745) = 2001 TH120 = 2003 DG3

Discovered at Palomar on 2003-02-22 by NEAT.

Orbit

Orbit type: Main Belt

Note: WebGL enabled browser required.

epoch2024-03-31.0
epoch JD2460400.5
perihelion date2023-09-24.76129
perihelion JD2460212.26129
argument of perihelion (°)160.92258
ascending node (°)333.99748
inclination (°)14.63961
eccentricity0.0395406
perihelion distance (AU)2.4820493
Tisserand w.r.t. Jupiter3.4
ΔV w.r.t. Earth (km/sec)10.9
semimajor axis (AU)2.5842313
mean anomaly (°)44.65969
mean daily motion (°/day)0.23725030
aphelion distance (AU)2.686
period (years)4.15
P-vector [x]-0.71077165
P-vector [y]0.60805327
P-vector [z]0.35365927
Q-vector [x]-0.69464114
Q-vector [y]-0.52753922
Q-vector [z]-0.48905629
absolute magnitude16.18
phase slope0.15
uncertainty0
referenceMPEC 2024-F28
observations used372
oppositions15
arc length (days)8190
first opposition used2001
last opposition used2024
residual rms (arc-secs)0.76
perturbers coarse indicatorM-v
perturbers precise indicator003Ek
first observation date used2001-10-15.0
last observation date used2024-03-18.0
computer nameMPCLINUX
JD of orbit computation2456612.837445
perihelion JD uncertainty (days)7.3223E-04
argument of perihelion uncertainty (°)1.7268E-04
ascending node uncertainty (°)2.3093E-05
inclination uncertainty (°)1.6469E-05
eccentricity uncertainty 2.0411E-07
perihelion distance uncertainty (AU)5.2012E-07
Minimum Orbit Intersection Distances (in AU)
for orbit epoch: 2460400.5, reference: E2024-GF4
Mercury2.12455
Venus1.76386
Earth1.49726
Mars0.8204
Jupiter2.31939
Saturn6.63108
Uranus15.9499
Neptune27.256

Observations

382 total observations over interval: 2001 10 15.24955 – 2024 03 18.443358
These data are available for download (format description).

Date (UT) J2000 RA J2000 Dec Magn Location Ref
2001 10 15.24955 01 32 49.53 +30 17 38.9 19.9   704 – Lincoln Laboratory ETS, New Mexico MPS 39528
2001 10 15.26544 01 32 48.43 +30 17 37.2 20.5   704 – Lincoln Laboratory ETS, New Mexico MPS 39528
2001 10 15.28131 01 32 47.41 +30 17 37.5 20.2   704 – Lincoln Laboratory ETS, New Mexico MPS 39528
2001 10 18.24451 01 29 30.06 +30 14 17.1 19.6   704 – Lincoln Laboratory ETS, New Mexico MPS 39528
2001 10 18.26043 01 29 28.99 +30 14 16.7 19.6   704 – Lincoln Laboratory ETS, New Mexico MPS 39528
2001 10 18.29225 01 29 26.84 +30 14 13.2 19.7   704 – Lincoln Laboratory ETS, New Mexico MPS 39528
2001 10 18.30813 01 29 25.80 +30 14 12.5 19.6   704 – Lincoln Laboratory ETS, New Mexico MPS 39528
2001 11 11.22803 01 05 36.98 +28 41 42.4 20.1   704 – Lincoln Laboratory ETS, New Mexico MPS 81551
2001 11 11.24252 01 05 36.25 +28 41 37.5 19.6   704 – Lincoln Laboratory ETS, New Mexico MPS 81551
2001 11 11.25702 01 05 35.61 +28 41 32.5 20.3   704 – Lincoln Laboratory ETS, New Mexico MPS 81551
2001 11 11.27156 01 05 34.85 +28 41 29.2 20.1   704 – Lincoln Laboratory ETS, New Mexico MPS 81551
2003 02 22.31709 10 20 52.28 +10 45 22.8 19.2   644 – Palomar Mountain/NEAT MPS 74376
2003 02 22.33801 10 20 50.83 +10 45 22.4 18.8   644 – Palomar Mountain/NEAT MPS 74376
2003 02 22.36381 10 20 49.05 +10 45 21.7 19.0   644 – Palomar Mountain/NEAT MPS 74376
2003 02 23.37885 10 19 40.70 +10 44 50.6 19.3 V 291 – LPL/Spacewatch II MPS 74376
2003 02 23.40384 10 19 39.01 +10 44 49.3 20.1 V 291 – LPL/Spacewatch II MPS 74376
2003 02 23.43339 10 19 36.95 +10 44 48.8 19.6 V 291 – LPL/Spacewatch II MPS 74376
2003 03 05.25001 10 08 53.73 +10 38 01.5 19.5   704 – Lincoln Laboratory ETS, New Mexico MPS 74376
2003 03 05.26352 10 08 52.83 +10 38 02.3 19.2   704 – Lincoln Laboratory ETS, New Mexico MPS 74376
2003 03 05.27753 10 08 51.96 +10 37 59.8 19.5   704 – Lincoln Laboratory ETS, New Mexico MPS 74376
2003 03 05.29093 10 08 51.09 +10 37 59.6 19.3   704 – Lincoln Laboratory ETS, New Mexico MPS 74376
2003 03 06.16874 10 07 56.78 +10 37 09.5 19.2 R 699 – Lowell Observatory-LONEOS MPS 74376
2003 03 06.18374 10 07 55.84 +10 37 07.2   699 – Lowell Observatory-LONEOS MPS 74376
2003 03 06.19876 10 07 54.89 +10 37 07.5   699 – Lowell Observatory-LONEOS MPS 74376
2003 03 06.21378 10 07 53.88 +10 37 08.0   699 – Lowell Observatory-LONEOS MPS 74376
2003 03 06.42799 10 07 40.38 +10 36 55.0 19.7   644 – Palomar Mountain/NEAT MPS 74376
2003 03 06.43836 10 07 39.72 +10 36 54.3 19.5   644 – Palomar Mountain/NEAT MPS 74376
2003 03 06.44880 10 07 39.05 +10 36 53.8 19.7   644 – Palomar Mountain/NEAT MPS 74376
2003 03 07.19057 10 06 54.26 +10 36 06.6 19.2 R 699 – Lowell Observatory-LONEOS MPS 74376
2003 03 07.20658 10 06 53.07 +10 36 07.1   699 – Lowell Observatory-LONEOS MPS 74376
2003 03 07.22255 10 06 52.13 +10 36 06.6   699 – Lowell Observatory-LONEOS MPS 74376
2003 03 07.23857 10 06 51.11 +10 36 06.0   699 – Lowell Observatory-LONEOS MPS 74376
2005 10 02.31652 00 29 15.69 +19 13 01.8 20.0 R 644 – Palomar Mountain/NEAT MPS 143902
2005 10 02.33835 00 29 14.28 +19 13 00.6 20.1 R 644 – Palomar Mountain/NEAT MPS 143902
2005 10 02.36074 00 29 12.80 +19 12 58.5 19.7 R 644 – Palomar Mountain/NEAT MPS 143902
2005 10 05.25792 00 26 09.49 +19 08 22.7 20.2 V 703 – Catalina Sky Survey MPS 143902
2005 10 05.26432 00 26 09.06 +19 08 22.5 19.8 V 703 – Catalina Sky Survey MPS 143902
2005 10 05.27075 00 26 08.52 +19 08 21.4 19.8 V 703 – Catalina Sky Survey MPS 143902
2005 10 05.27715 00 26 08.12 +19 08 21.0 20.0 V 703 – Catalina Sky Survey MPS 143902
2005 10 28.21686 00 05 08.84 +17 55 08.2 20.4 V 703 – Catalina Sky Survey MPS 146038
2005 10 28.22162 00 05 08.55 +17 55 07.6 19.5 V 703 – Catalina Sky Survey MPS 146038
2005 10 28.22661 00 05 08.41 +17 55 06.4 19.3 V 703 – Catalina Sky Survey MPS 146038
2005 10 28.23138 00 05 08.19 +17 55 05.5 19.8 V 703 – Catalina Sky Survey MPS 146038
2007 01 16.33654 09 38 14.71 +24 30 07.5 19.2 V 703 – Catalina Sky Survey MPS 196336
2007 01 16.34307 09 38 14.42 +24 30 09.7 19.7 V 703 – Catalina Sky Survey MPS 196336
2007 01 16.34963 09 38 14.06 +24 30 09.3 20.1 V 703 – Catalina Sky Survey MPS 196336
2007 01 16.35619 09 38 13.66 +24 30 09.9 20.1 V 703 – Catalina Sky Survey MPS 196336
2007 01 28.27105 09 25 46.30 +24 31 44.5 18.9 V 703 – Catalina Sky Survey MPS 198087
2007 01 28.27595 09 25 45.94 +24 31 42.8 19.3 V 703 – Catalina Sky Survey MPS 198087
2007 01 28.28088 09 25 45.66 +24 31 43.8 19.8 V 703 – Catalina Sky Survey MPS 198087
2007 01 28.28580 09 25 45.22 +24 31 43.3 19.6 V 703 – Catalina Sky Survey MPS 198087
2007 02 06.36805 09 15 02.22 +24 24 01.2 18.8 R 644 – Palomar Mountain/NEAT MPS 198680
2007 02 06.38849 09 15 00.73 +24 23 59.1 19.1 R 644 – Palomar Mountain/NEAT MPS 198680
2007 02 06.40889 09 14 59.23 +24 23 57.3 19.2 R 644 – Palomar Mountain/NEAT MPS 198680
2007 02 08.24307 09 12 48.60 +24 21 08.4 19.1 R 644 – Palomar Mountain/NEAT MPS 199457
2007 02 08.26347 09 12 47.08 +24 21 06.6 18.9 R 644 – Palomar Mountain/NEAT MPS 199457
2007 02 08.28388 09 12 45.58 +24 21 04.7 19.1 R 644 – Palomar Mountain/NEAT MPS 199457
2007 02 09.22707 09 11 38.58 +24 19 27.4 19.3 V 703 – Catalina Sky Survey MPS 198680
2007 02 09.23355 09 11 38.07 +24 19 27.4 19.6 V 703 – Catalina Sky Survey MPS 198680
2007 02 09.24065 09 11 37.57 +24 19 24.8 19.2 V 703 – Catalina Sky Survey MPS 198680
2007 02 09.24714 09 11 37.10 +24 19 25.8 19.4 V 703 – Catalina Sky Survey MPS 198680
2007 02 10.29243 09 10 23.18 +24 17 27.7 19.5 R 644 – Palomar Mountain/NEAT MPS 199457
2007 02 10.31271 09 10 21.74 +24 17 25.4 19.1 R 644 – Palomar Mountain/NEAT MPS 199457
2007 02 10.33411 09 10 20.18 +24 17 22.8 19.1 R 644 – Palomar Mountain/NEAT MPS 199457
2007 02 15.26787 09 04 39.93 +24 06 06.2 19.5 R 644 – Palomar Mountain/NEAT MPS 200343
2007 02 15.28814 09 04 38.54 +24 06 03.2 19.7 R 644 – Palomar Mountain/NEAT MPS 200343
2007 02 15.30845 09 04 37.11 +24 05 59.8 19.2 R 644 – Palomar Mountain/NEAT MPS 200343
2007 02 16.23645 09 03 35.38 +24 03 28.9 19.8 R 644 – Palomar Mountain/NEAT MPS 200343
2007 02 16.25131 09 03 34.34 +24 03 26.5 19.4 V 703 – Catalina Sky Survey MPS 199457
2007 02 16.25720 09 03 33.99 +24 03 26.0 19.4 R 644 – Palomar Mountain/NEAT MPS 200343
2007 02 16.25833 09 03 33.84 +24 03 26.2 19.6 V 703 – Catalina Sky Survey MPS 199457
2007 02 16.26538 09 03 33.37 +24 03 23.6 19.2 V 703 – Catalina Sky Survey MPS 199457
2007 02 16.27238 09 03 32.83 +24 03 23.6 19.6 V 703 – Catalina Sky Survey MPS 199457
2007 02 16.27787 09 03 32.57 +24 03 22.6 19.3 R 644 – Palomar Mountain/NEAT MPS 200343
2007 02 25.13396 08 54 32.97 +23 33 27.2 19.3 V 703 – Catalina Sky Survey MPS 201484
2007 02 25.14445 08 54 32.47 +23 33 24.5 19.6 V 703 – Catalina Sky Survey MPS 201484
2007 02 25.15341 08 54 31.93 +23 33 24.9 19.4 V 703 – Catalina Sky Survey MPS 201484
2007 02 25.16237 08 54 31.42 +23 33 20.1 19.7 V 703 – Catalina Sky Survey MPS 201484
2009 09 21.40756 23 32 17.10 +07 16 13.5 20.0 V 291 – LPL/Spacewatch II MPS 296701
2009 09 21.41265 23 32 16.78 +07 16 13.0 19.9 V 291 – LPL/Spacewatch II MPS 296701
2009 09 21.41752 23 32 16.46 +07 16 12.5 20.0 V 291 – LPL/Spacewatch II MPS 296701
2009 09 28.11537 23 25 35.56 +07 05 07.5 20.1 V 691 – Steward Observatory, Kitt Peak-Spacewatch MPS 297667
2009 09 28.13319 23 25 34.52 +07 05 05.8 20.3 V 691 – Steward Observatory, Kitt Peak-Spacewatch MPS 297667
2009 09 28.15099 23 25 33.44 +07 05 03.8 20.0 V 691 – Steward Observatory, Kitt Peak-Spacewatch MPS 297667
2011 01 28.32440 07 45 01.33 +35 37 11.9 19.9 V 703 – Catalina Sky Survey MPS 368248
2011 01 28.33090 07 45 00.79 +35 37 11.3 19.5 V 703 – Catalina Sky Survey MPS 368248
2011 01 28.33752 07 45 00.25 +35 37 09.4 19.1 V 703 – Catalina Sky Survey MPS 368248
2011 01 28.34416 07 44 59.78 +35 37 06.8 19.5 V 703 – Catalina Sky Survey MPS 368248
2011 02 09.26616 07 32 40.23 +34 31 18.6 19.5 V 703 – Catalina Sky Survey MPS 371093
2011 02 09.27183 07 32 39.91 +34 31 14.5 19.4 V 703 – Catalina Sky Survey MPS 371093
2011 02 09.27752 07 32 39.73 +34 31 12.0 19.8 V 703 – Catalina Sky Survey MPS 371093
2011 02 09.28323 07 32 39.30 +34 31 06.8 19.0 V 703 – Catalina Sky Survey MPS 371093
